Home   Weather   Windsor   Past weeks

Flag for Canada Past Weather in Windsor, Ontario, Canada — Yesterday and Last 2 Weeks

Now
61 °F

Partly sunny.


Feels Like: 61 °F
Forecast: 47 / 64 °F
Wind: 21 mph from Southwest

Location: Windsor Weather Station

Current Time: Apr 28, 2017 at 4:25:21 pm

Latest Report: Apr 28, 2017 at 3:00 pm


Visibility: 10 mi

Pressure: 30.01 "Hg

Humidity: 52%

Dew Point: 43 °F

Location of WindsorLocation

Past Weather in Windsor — Graph

°F

Windsor Temperature Yesterday

Maximum temperature yesterday: 72 °F (at 10:00 am)
Minimum temperature yesterday: 52 °F (at 11:00 pm)
Average temperature yesterday: 63 °F

High & Low Weather Summary for the Past Weeks

 TemperatureHumidityPressure
High81 °F (Apr 15, 3:00 pm)100% (Apr 17, 7:00 am)30.43 "Hg (Apr 17, 7:00 am)
Low34 °F (Apr 23, 5:00 am)30% (Apr 23, 3:00 pm)29.49 "Hg (Apr 27, 12:00 pm)
Average56 °F70%29.99 "Hg
* Reported Apr 13 3:00 pm — Apr 28 3:00 pm, Windsor, Weather by CustomWeather, © 2017

Note: Actual official high and low records may vary slightly from our data, if they occured in-between our weather recording intervals... More about our weather records

Advertising

Windsor Weather History for the Previous 24 Hours

Scroll right to see more
 ConditionsComfort  
Time TempWeatherWind HumidityBarometerVisibility
3:00 pm
Fri, Apr 28
61 °FPartly sunny.21 mph52%30.01 "Hg10 mi
2:00 pm59 °FPartly sunny.18 mph59%30.00 "Hg10 mi
1:00 pm57 °FMore clouds than sun.15 mph59%29.98 "Hg15 mi
12:00 pm57 °FPartly sunny.12 mph63%30.00 "Hg15 mi
11:00 am57 °FPartly sunny.14 mph59%30.01 "Hg15 mi
10:00 am54 °FBroken clouds.13 mph58%30.01 "Hg15 mi
9:00 am52 °FPartly sunny.9 mph62%29.98 "Hg15 mi
8:00 am48 °FBroken clouds.9 mph76%29.96 "Hg15 mi
7:00 am45 °FPartly sunny.7 mph81%29.96 "Hg15 mi
6:00 am43 °FPassing clouds.7 mph87%29.96 "Hg15 mi
5:00 am46 °FPassing clouds.9 mph71%29.91 "Hg15 mi
4:00 am48 °FPassing clouds.13 mph66%29.90 "Hg15 mi
3:00 am50 °FPassing clouds.15 mph67%29.88 "Hg15 mi
2:00 am50 °FPassing clouds.15 mph67%29.85 "Hg15 mi
1:00 am52 °FPassing clouds.14 mph67%29.84 "Hg15 mi
12:00 am52 °FPassing clouds.20 mph62%29.83 "Hg15 mi
11:00 pm
Thu, Apr 27
52 °FPassing clouds.20 mph62%29.79 "Hg15 mi
10:00 pm54 °FPassing clouds.18 mph63%29.76 "Hg15 mi
9:00 pm54 °FPassing clouds.21 mph67%29.72 "Hg15 mi
8:00 pm57 °FScattered clouds.25 mph63%29.68 "Hg15 mi
7:00 pm61 °FScattered clouds.23 mph59%29.65 "Hg15 mi
6:00 pm64 °FPartly sunny.26 mph56%29.61 "Hg15 mi
5:00 pm68 °FScattered clouds.22 mph56%29.57 "Hg15 mi
4:00 pm68 °FBroken clouds.26 mph60%29.54 "Hg15 mi
Weather by CustomWeather, © 2017

See weather overviewHow to use our weather pages